Date String (YYYY-MM-DD hh:mm:ss) UTC,Instrument flags,absolute air pressure of the measurement (hPa),sample flow rate (lpm),inlet stack bypass flow (lpm),air temperature of the measurement (°C),ambient temperature measured by the external sensor (°C),aerosol sample conditioner tube jacket temperature (°C),OPC LED temperature (°C),internal box temperature (°C),relative humidity of the measurement (%),span deviation,mass concentration of particles derived from Lorenz-Mie calculation of OPC scattering (μg/m³),mass concentration of particles derived from Lorenz-Mie calculation of OPC scattering (μg/m³),mass concentration of particles derived from Lorenz-Mie calculation of OPC scattering (μg/m³)
DateTimeUTC,F1_M11,P_M11,Q1_M11,Q2_M11,T1_M11,T2_M11,T3_M11,T4_M11,T5_M11,U1_M11,ZSPAN_M11,X2_M11,X0_M11,X1_M11
2024-06-14 17:00:00,SystemResetWarning,0832.3,5.00,000.00,029.8,029.4,000.0,037.8,031.7,038.1,0000.2,0012.31,0041.69,0009.08
2024-06-14 17:01:00,SystemResetWarning,0832.2,5.00,000.00,029.8,029.4,000.0,037.9,031.7,038.3,0000.2,0012.30,0041.15,0009.05
2024-06-14 17:02:00,SystemResetWarning,0832.2,4.99,000.00,029.9,029.5,000.0,037.9,031.8,037.8,0000.1,0012.32,0041.98,0009.03
2024-06-14 17:03:00,SystemResetWarning,0832.2,4.99,000.00,029.9,029.3,000.0,038.0,031.7,037.3,0000.4,0012.36,0040.08,0009.05
2024-06-14 17:04:00,SystemResetWarning,0832.0,5.00,000.00,029.7,027.4,000.0,038.0,030.7,038.6,0000.5,0012.31,0040.10,0009.06
2024-06-14 17:05:00,SystemResetWarning,0831.9,5.01,000.00,029.3,026.0,000.0,038.1,030.0,039.5,0000.8,0012.27,0039.85,0009.05
2024-06-14 17:06:00,SystemResetWarning,0831.9,5.01,000.00,029.1,025.9,000.0,038.0,030.0,039.4,0000.9,0012.27,0038.86,0009.08
2024-06-14 17:07:00,SystemResetWarning,0832.1,4.99,000.00,029.0,026.3,000.0,037.9,030.1,039.6,0000.8,0012.28,0039.64,0009.13
2024-06-14 17:08:00,SystemResetWarning,0832.0,5.00,000.00,029.0,026.8,000.0,037.7,030.4,040.1,0000.7,0012.37,0041.96,0009.17
2024-06-14 17:09:00,SystemResetWarning,0832.2,5.00,000.00,029.1,027.3,000.0,037.7,030.6,039.7,0000.7,0012.48,0043.79,0009.23
2024-06-14 17:10:00,SystemResetWarning,0832.0,5.00,000.00,029.1,027.6,000.0,037.6,030.8,039.9,0000.1,0012.50,0042.45,0009.27
2024-06-14 17:11:00,SystemResetWarning,0832.1,4.99,000.00,029.2,028.0,000.0,037.6,030.9,039.9,0000.0,0012.55,0044.38,0009.30
2024-06-14 17:12:00,SystemResetWarning,0832.1,5.00,000.00,029.2,028.2,000.0,037.6,031.0,039.5,0000.1,0012.57,0045.44,0009.32
2024-06-14 17:13:00,SystemResetWarning,0832.2,5.00,000.00,029.3,028.5,000.0,037.6,031.1,039.3,0000.2,0012.51,0043.13,0009.35
2024-06-14 17:14:00,SystemResetWarning,0832.0,4.99,000.00,029.3,028.7,000.0,037.6,031.2,038.8,0000.0,0012.57,0044.41,0009.38
2024-06-14 17:15:00,SystemResetWarning,0831.9,4.99,000.00,029.4,028.8,000.0,037.7,031.3,039.1,0000.2,0012.68,0044.35,0009.39
2024-06-14 17:16:00,SystemResetWarning,0832.0,5.00,000.00,029.5,029.0,000.0,037.7,031.4,038.9,0000.3,0012.72,0044.34,0009.41
2024-06-14 17:17:00,SystemResetWarning,0832.2,5.00,000.00,029.6,029.1,000.0,037.7,031.5,039.0,0000.4,0012.71,0045.12,0009.40
2024-06-14 17:18:00,SystemResetWarning,0831.9,5.00,000.00,029.6,029.2,000.0,037.7,031.5,038.8,0000.6,0012.72,0043.86,0009.38
2024-06-14 17:19:00,SystemResetWarning,0831.9,5.01,000.00,029.7,029.3,000.0,037.8,031.6,039.3,0000.5,0012.73,0042.60,0009.40
2024-06-14 17:20:00,SystemResetWarning,0832.0,5.00,000.00,029.8,029.4,000.0,037.8,031.7,038.9,0000.3,0012.72,0042.88,0009.36
2024-06-14 17:21:00,SystemResetWarning,0832.0,5.00,000.00,029.8,029.5,000.0,037.9,031.8,038.6,0000.4,0012.69,0043.98,0009.34
2024-06-14 17:22:00,SystemResetWarning,0832.1,4.98,000.00,029.9,029.5,000.0,037.9,031.8,039.2,-000.0,0012.64,0043.48,0009.32
2024-06-14 17:23:00,SystemResetWarning,0832.1,5.00,000.00,029.8,027.9,000.0,038.0,031.0,039.0,0000.2,0012.60,0043.47,0009.29
2024-06-14 17:24:00,SystemResetWarning,0832.2,5.01,000.00,029.4,026.1,000.0,038.0,030.1,039.3,0000.7,0012.66,0045.90,0009.26
2024-06-14 17:25:00,SystemResetWarning,0832.2,5.01,000.00,029.1,025.9,000.0,038.0,029.9,039.6,0000.8,0012.69,0046.77,0009.28
2024-06-14 17:26:00,SystemResetWarning,0832.2,4.99,000.00,029.0,026.3,000.0,037.9,030.1,039.9,0000.8,0012.76,0047.22,0009.30
2024-06-14 17:27:00,SystemResetWarning,0832.3,5.00,000.00,029.0,026.8,000.0,037.8,030.4,039.9,0000.6,0012.83,0045.81,0009.38
2024-06-14 17:28:00,SystemResetWarning,0832.3,4.99,000.00,029.0,027.2,000.0,037.7,030.6,040.5,0000.7,0012.92,0045.42,0009.42
2024-06-14 17:29:00,SystemResetWarning,0832.3,5.01,000.00,029.1,027.7,000.0,037.6,030.8,040.9,0000.2,0012.84,0045.46,0009.39
2024-06-14 17:30:00,SystemResetWarning,0832.3,4.99,000.00,029.2,028.0,000.0,037.6,030.9,041.0,0000.2,0012.77,0046.11,0009.36
2024-06-14 17:31:00,SystemResetWarning,0832.3,5.01,000.00,029.2,028.3,000.0,037.6,031.0,040.1,0000.4,0012.73,0044.08,0009.36
2024-06-14 17:32:00,SystemResetWarning,0832.3,5.00,000.00,029.3,028.5,000.0,037.6,031.1,040.6,0000.6,0012.78,0043.22,0009.39
2024-06-14 17:33:00,SystemResetWarning,0832.4,4.99,000.00,029.4,028.7,000.0,037.6,031.2,040.2,0000.7,0012.78,0042.00,0009.43
2024-06-14 17:34:00,SystemResetWarning,0832.4,4.99,000.00,029.5,028.9,000.0,037.7,031.3,040.0,0000.5,0012.90,0042.52,0009.50
2024-06-14 17:35:00,SystemResetWarning,0832.4,4.99,000.00,029.5,029.1,000.0,037.7,031.4,039.4,-000.1,0012.90,0043.67,0009.54
2024-06-14 17:36:00,SystemResetWarning,0832.4,4.99,000.00,029.6,029.2,000.0,037.7,031.5,039.0,-000.2,0012.85,0042.89,0009.57
2024-06-14 17:37:00,SystemResetWarning,0832.5,5.01,000.00,029.7,029.3,000.0,037.8,031.6,038.9,0000.0,0012.71,0040.80,0009.57
2024-06-14 17:38:00,SystemResetWarning,0832.5,5.01,000.00,029.8,029.4,000.0,037.8,031.7,039.3,0000.1,0012.64,0042.78,0009.54
2024-06-14 17:39:00,SystemResetWarning,0832.5,4.99,000.00,029.8,028.9,000.0,037.9,031.4,039.0,-000.0,0012.57,0042.43,0009.50
2024-06-14 17:40:00,SystemResetWarning,0832.4,5.00,000.00,029.5,026.9,000.0,037.9,030.4,039.4,0000.2,0012.58,0042.31,0009.52
2024-06-14 17:41:00,SystemResetWarning,0832.3,5.02,000.00,029.2,026.1,000.0,037.9,030.0,040.5,0000.2,0012.71,0041.71,0009.60
2024-06-14 17:42:00,SystemResetWarning,0832.3,4.99,000.00,029.0,026.3,000.0,037.9,030.0,040.8,0000.4,0012.79,0042.44,0009.67
2024-06-14 17:43:00,SystemResetWarning,0832.3,4.99,000.00,029.0,026.7,000.0,037.7,030.2,040.8,0000.5,0012.82,0042.56,0009.69
2024-06-14 17:44:00,SystemResetWarning,0832.3,5.00,000.00,029.0,027.1,000.0,037.7,030.5,040.2,0000.9,0012.89,0042.96,0009.71
2024-06-14 17:45:00,SystemResetWarning,0832.2,5.00,000.00,029.1,027.5,000.0,037.6,030.7,039.9,0001.3,0012.92,0045.78,0009.75
2024-06-14 17:46:00,SystemResetWarning,0832.2,5.00,000.00,029.1,027.9,000.0,037.6,030.9,039.9,0001.5,0012.97,0045.64,0009.78
2024-06-14 17:47:00,SystemResetWarning,0832.1,5.00,000.00,029.2,028.2,000.0,037.6,031.0,040.0,0001.9,0013.01,0045.58,0009.77
2024-06-14 17:48:00,SystemResetWarning,0832.1,4.99,000.00,029.3,028.4,000.0,037.6,031.1,040.3,0001.7,0012.97,0047.88,0009.74
2024-06-14 17:49:00,SystemResetWarning,0832.1,5.00,000.00,029.3,028.7,000.0,037.6,031.2,039.6,0001.6,0012.96,0047.15,0009.70
2024-06-14 17:50:00,SystemResetWarning,0832.1,5.00,000.00,029.4,028.8,000.0,037.6,031.3,039.7,0001.3,0013.03,0048.02,0009.73
2024-06-14 17:51:00,SystemResetWarning,0832.1,5.00,000.00,029.5,029.0,000.0,037.6,031.4,039.4,0001.2,0013.09,0048.92,0009.74
2024-06-14 17:52:00,SystemResetWarning,0832.1,5.01,000.00,029.6,029.1,000.0,037.7,031.5,039.5,0001.3,0013.03,0048.75,0009.70
2024-06-14 17:53:00,SystemResetWarning,0832.0,5.00,000.00,029.7,029.3,000.0,037.7,031.6,039.2,0001.3,0012.95,0048.40,0009.65
2024-06-14 17:54:00,SystemResetWarning,0832.0,5.00,000.00,029.7,029.4,000.0,037.8,031.7,038.9,0001.3,0012.89,0048.18,0009.60
2024-06-14 17:55:00,SystemResetWarning,0832.1,4.99,000.00,029.7,028.8,000.0,037.8,031.4,039.0,0000.6,0012.88,0048.34,0009.60
2024-06-14 17:56:00,SystemResetWarning,0832.0,4.99,000.00,029.5,027.0,000.0,037.9,030.5,039.3,0000.5,0012.89,0046.32,0009.57
2024-06-14 17:57:00,SystemResetWarning,0832.0,5.01,000.00,029.2,026.2,000.0,037.9,030.1,040.2,0000.8,0012.88,0043.88,0009.56
2024-06-14 17:58:00,SystemResetWarning,0832.0,5.01,000.00,029.0,026.3,000.0,037.8,030.1,041.0,0000.5,0012.97,0043.83,0009.60
2024-06-14 17:59:00,SystemResetWarning,0832.0,5.00,000.00,029.0,026.7,000.0,037.7,030.3,040.8,0000.4,0013.13,0043.37,0009.66
